Regional Weather Roundup
Issued by NWS Jackson, KY

Home | Current Version | Previous Version | Graphics & Text | Print | Product List | Glossary On
Versions: 1 2 3 4 5 6 7 8 9 10 11 12 13 14 15 16 17 18 19 20 21 22 23 24 25 26 27
000
ASUS43 KJKL 012010
RWRJKL

EAST KENTUCKY HOURLY WEATHER ROUNDUP
NATIONAL WEATHER SERVICE JACKSON KY
400 PM EDT SUN MAY 01 2016

NOTE: "FAIR" INDICATES FEW OR NO CLOUDS BELOW 12,000 FEET WITH
NO SIGNIFICANT WEATHER AND/OR OBSTRUCTIONS TO VISIBILITY.

* THESE REPORTS ARE NOT UNDER NWS QUALITY CONTROL AND MAY NOT
  REPORT WEATHER SUCH AS PRECIPITATION AND FOG.

KYZ079-080-083-085-087-088-110-112-115-119-120-012100
...EASTERN KENTUCKY...

CITY           SKY/WX    TMP DP  RH WIND       PRES   REMARKS
JACKSON        MOSUNNY   76  61  59 VRB7      29.94F
LONDON         PTSUNNY   80  61  52 SW7       29.92F
SOMERSET*      CLOUDY    79  61  53 W13G18    29.93F
MONTICELLO*    MOSUNNY   81  64  56 W22       29.94F
WILLIAMSBURG*  MOCLDY    81  63  54 SW6       29.93F
MIDDLESBORO*   SUNNY     80  63  55 S8        29.95F
HARLAN APT*    MOCLDY    79  59  50 CALM      29.96F
HAZARD APT*    MOCLDY    81  61  50 S8        29.93F
BLACK MTN*       N/A     68  61  77 SE8         N/A
PIKE CO APT*     N/A     78  63  60 W3        29.95F
BIG SANDY APT* PTCLDY    79  64  58 SW8       29.94F
MOREHEAD APT*  PTCLDY    79  63  57 SW13      29.92F
$$

KYZ035-036-041-042-044-050-067-078-099-012100
...CENTRAL KENTUCKY...

CITY           SKY/WX    TMP DP  RH WIND       PRES   REMARKS
MT STERLING*   CLOUDY    77  66  69 W7        29.91F
FLEMING/MASON* HVY RAIN  62  58  85 S21G31    29.94R
DANVILLE*      MOSUNNY   81  64  57 SW9       29.92F
RICHMOND*      MOSUNNY   79  63  57 SW10      29.91F
LEXINGTON      LGT RAIN  74  62  66 S8        29.89F
FRANKFORT      TSTM      73  64  73 SW18G24   29.88F
LOUISVILLE     TSTM      70  59  68 NW6       29.91R
LEBANON*       MOCLDY    79  64  61 S14       29.92R
BOWLING GREEN  CLOUDY    80  63  55 SW14      29.92F
$$

KYZ091>093-OHZ055-061-077-WVZ005-015-034-035-042-012100
...SOUTHERN OHIO/WEST VIRGINIA...

CITY           SKY/WX    TMP DP  RH WIND       PRES   REMARKS
COVINGTON      CLOUDY    77  57  50 S6        29.90F
COLUMBUS       MOSUNNY   74  58  57 SW9       29.90F
DAYTON         MOSUNNY   74  58  57 W10       29.92F
WILMINGTON     LGT RAIN  75  60  59 SW10      29.90F
HUNTINGTON     PTSUNNY   76  64  66 CALM      29.91F
CHARLESTON       N/A     77  59  53 SW7       29.93S
PINEVILLE*       N/A     80  54  40 MISG      30.02F
BECKLEY          N/A     73  54  51 W8        30.00F
$$

VAZ002-007-008-TNZ017-027-036-066-071-012100
...SOUTHWEST VIRGINIA/EAST TENNESSEE...

CITY           SKY/WX    TMP DP  RH WIND       PRES   REMARKS
WISE*            N/A     73  54  49 S8        30.04F
BRISTOL        PTSUNNY   79  62  56 W9        30.00F
MORRISTOWN*    PTCLDY    79  64  61 W9G18     29.98F
SEVIERVILLE*   CLEAR     81  63  54 W9        29.95F
KNOXVILLE      CLOUDY    81  64  56 SW14      29.96F
OAK RIDGE      CLOUDY    81  62  52 VRB6      29.96F
CROSSVILLE     CLOUDY    79  60  52 W6        29.99F
NASHVILLE      CLOUDY    82  62  50 SW7       29.93F
$$

...KEY TO REMARKS...
VSB - VISIBILITY IN MILES
WCI - WIND CHILL INDEX
HX  - HEAT INDEX

$$




USA.gov is the U.S. government's official web portal to all federal, state and local government web resources and services.